Regional Weather Roundup
Issued by NWS

Home | Current Version | Previous Version | Graphics & Text | Print | Product List | Glossary On
Versions: 1 2 3 4 5 6 7 8 9 10 11 12 13 14 15 16 17 18 19 20 21 22 23 24 25 26 27 28 29 30 31 32 33 34 35 36 37 38 39 40 41 42 43 44 45 46 47 48 49 50
000
ASUS43 KFSD 230002
RWRSD

WEATHER ROUNDUP FOR SOUTH DAKOTA
NATIONAL WEATHER SERVICE SIOUX FALLS SD
600 PM CST THU FEB 22 2018

NOTE: "FAIR" INDICATES FEW OR NO CLOUDS BELOW 12,000 FEET WITH NO
SIGNIFICANT WEATHER AND/OR OBSTRUCTIONS TO VISIBILITY.


SDZ001>005-009-010-012>017-230100-
NORTHWEST AND NORTH CENTRAL SOUTH DAKOTA

CITY           SKY/WX    TMP DP  RH WIND       PRES   REMARKS
BUFFALO          N/A     13   4  67 CALM      30.01S
FAITH            N/A      5   1  83 N7        30.10S WCI  -7
MOBRIDGE       LGT SNOW  21  15  78 N7        30.15R VSB 1   WCI  12
$$

SDZ012>016-024>037-041>051-057-063-072>074-230100-
SOUTHWEST AND SOUTH CENTRAL SOUTH DAKOTA

CITY           SKY/WX    TMP DP  RH WIND       PRES   REMARKS
RAPID CTY ARPT MOCLDY     9   0  67 NW10      30.05S WCI  -5
PIERRE         SNOW      21  20  96 SE10      30.15R VSB 1/4 WCI  10
CUSTER         PTCLDY    25   9  50 CALM      29.89S
ELLSWORTH AFB  PTCLDY     9   1  68 N7        30.04S WCI  -2
PHILIP         LGT SNOW  10   8  92 NW9       30.13R VSB 3/4 WCI  -3
PINE RIDGE     CLOUDY    24  20  84 CALM      30.03R
SPEARFISH        N/A     18   5  57 W7        30.01S WCI   8
WINNER         LGT SNOW  23  19  85 SE8       30.12F FOG     WCI  14
$$

SDZ004>011-016>023-039-040-230100-
NORTHEAST SOUTH DAKOTA

CITY           SKY/WX    TMP DP  RH WIND       PRES   REMARKS
ABERDEEN       SNOW      25  24  96 E5        30.23F VSB 1/2 WCI  19
WATERTOWN      SNOW      20  18  92 E10       30.17F VSB 1/4 WCI   9
BROOKINGS      LGT SNOW  22  20  92 E14       30.18F FOG     WCI   9
SISSETON         N/A     22  21  96 E6        30.26F WCI  14
$$

SDZ017-020-022-023-036>040-048>070-230100-
SOUTHEAST SOUTH DAKOTA

CITY           SKY/WX    TMP DP  RH WIND       PRES   REMARKS
SIOUX FALLS    SNOW      25  23  92 SE8       30.17F VSB 1/2 WCI  16
HURON          LGT SNOW  24  22  91 SE5       30.20F VSB 3/4 WCI  18
CHAMBERLAIN    LGT SNOW  22  21  96 E8        30.16F WCI  13
MITCHELL       SNOW      23  21  92 SE5       30.21R VSB 1/2 WCI  17
YANKTON        LGT SNOW  24  22  91 E3        30.18S FOG
$$

ABBREVIATIONS USED IN REMARKS
   TC - TEMPERATURE IN CELSIUS
  WCI - WIND CHILL INDEX
   HX - HEAT INDEX
  VSB - VISIBILITY





USA.gov is the U.S. government's official web portal to all federal, state and local government web resources and services.